Home   Weather   Monaco   Past weeks

Flag for Monaco Past Weather in Monaco, Monaco — Yesterday and Last 2 Weeks

64 °F

Passing clouds.

Feels Like: 64 °F
Forecast: 53 / 69 °F
Wind: 9 mph from North

Location: Nice Airport

Current Time: Oct 26, 2016 at 12:52:34 AM

Latest Report: Oct 26, 2016 at 12:00 AM

Visibility: N/A

Pressure: 30.15 "Hg

Humidity: 88%

Dew Point: 61 °F

Location of MonacoLocation

Past Weather in Monaco — Graph


Monaco Temperature Yesterday

Maximum temperature yesterday: 72 °F (at 2:00 PM)
Minimum temperature yesterday: 63 °F (at 6:30 AM)
Average temperature yesterday: 66 °F

High & Low Weather Summary for the Past Weeks

High72 °F (Oct 24, 1:00 PM)94% (Oct 11, 1:47 AM)30.24 "Hg (Oct 11, 1:47 AM)
Low50 °F (Oct 12, 6:00 AM)45% (Oct 12, 12:00 PM)29.56 "Hg (Oct 14, 10:00 AM)
Average61 °F75%29.97 "Hg
* Reported Oct 10 11:00 PM — Oct 25 11:30 PM, Monaco, Weather by CustomWeather, © 2016

Note: Actual official high and low records may vary slightly from our data, if they occured in-between our weather recording intervals... More about our weather records


Monaco Weather History for the Previous 24 Hours

Scroll right to see more
Time TempWeatherWind HumidityBarometerVisibility
11:30 PM
Tue, Oct 25
64 °FPassing clouds.6 mph88%30.15 "HgN/A
11:00 PM64 °FPassing clouds.7 mph88%30.15 "HgN/A
10:30 PM64 °FPassing clouds.6 mph88%30.15 "HgN/A
10:00 PM64 °FPassing clouds.5 mph88%30.15 "HgN/A
9:30 PM64 °FPassing clouds.6 mph88%30.12 "HgN/A
9:00 PM66 °FPassing clouds.3 mph88%30.12 "HgN/A
8:30 PM66 °FPartly cloudy.2 mph88%30.12 "HgN/A
8:00 PM66 °FPartly cloudy.2 mph94%30.12 "HgN/A
7:30 PM68 °FPassing clouds.3 mph88%30.12 "HgN/A
7:00 PM68 °FPassing clouds.1 mph88%30.12 "HgN/A
6:30 PM68 °FPartly sunny.3 mph88%30.12 "HgN/A
6:00 PM68 °FPartly sunny.6 mph88%30.09 "HgN/A
5:00 PM70 °FSprinkles. Partly sunny.5 mph88%30.15 "HgN/A
4:30 PM70 °FSprinkles. Partly sunny.5 mph83%30.15 "HgN/A
4:00 PM70 °FSprinkles. Partly sunny.7 mph83%30.12 "HgN/A
3:30 PM70 °FPartly sunny.7 mph88%30.15 "HgN/A
3:00 PM70 °FPartly sunny.5 mph83%30.15 "HgN/A
2:30 PM72 °FPartly sunny.3 mph83%30.15 "HgN/A
2:00 PM72 °FPartly sunny.3 mph78%30.15 "HgN/A
1:30 PM70 °FSprinkles. Partly sunny.5 mph83%30.15 "HgN/A
1:00 PM70 °FPartly sunny.8 mph83%30.15 "HgN/A
12:30 PM70 °FPartly sunny.3 mph78%30.18 "HgN/A
12:00 PM70 °FPartly sunny.8 mph73%30.15 "HgN/A
11:30 AM68 °FPartly sunny.14 mph83%30.15 "HgN/A
11:00 AM66 °FPartly sunny.7 mph83%30.18 "HgN/A
10:00 AM64 °FPartly sunny.7 mph83%30.18 "HgN/A
9:30 AM64 °FSprinkles. Partly sunny.3 mph83%30.15 "HgN/A
9:00 AM64 °FSprinkles. Partly sunny.5 mph83%30.15 "HgN/A
8:30 AM64 °FPartly sunny.10 mph83%30.15 "HgN/A
8:00 AM64 °FPartly sunny.10 mph78%30.12 "HgN/A
7:30 AM63 °FPartly cloudy.5 mph88%30.12 "HgN/A
7:00 AM64 °FPartly cloudy.9 mph78%30.12 "HgN/A
6:30 AM63 °FSprinkles. Partly cloudy.12 mph88%30.07 "HgN/A
6:00 AM64 °FPartly cloudy.8 mph78%30.12 "HgN/A
5:30 AM64 °FPassing clouds.5 mph78%30.12 "HgN/A
5:00 AM64 °FPassing clouds.6 mph83%30.12 "HgN/A
4:30 AM64 °FPassing clouds.6 mph83%30.12 "HgN/A
4:00 AM64 °FPassing clouds.6 mph83%30.12 "HgN/A
3:30 AM64 °FMostly cloudy.7 mph83%30.12 "HgN/A
3:00 AM64 °FSprinkles. Mostly cloudy.6 mph83%30.12 "HgN/A
2:30 AM64 °FMostly cloudy.5 mph83%30.12 "HgN/A
2:00 AM64 °FPartly cloudy.3 mph83%30.09 "HgN/A
1:00 AM64 °FPartly cloudy.7 mph83%30.09 "HgN/A
12:30 AM64 °FPassing clouds.7 mph88%30.09 "HgN/A
12:00 AM64 °FClear.6 mph88%30.09 "Hg10 mi
Weather by CustomWeather, © 2016

See weather overviewHow to use our weather pages